Alturas, CA

4:30 PM PDT on July 20, 2017 (GMT -0700)
Alturas Municipal

Weather History for KAAT - July, 2014

Change the Weather History Date:

Wednesday, July 2, 2014

  Actual Average Record
Temperature  
Mean Temperature 72 °F 64 °F  
Max Temperature 94 °F 84 °F 104 °F (2013)
Min Temperature 50 °F 44 °F 30 °F (1966)
Degree Days  
Heating Degree Days 0 2  
Month to date heating degree days 0 5  
Since 1 June heating degree days 89 185  
Since 1 July heating degree days 0 5  
Cooling Degree Days 7 1  
Month to date cooling degree days 16 2  
Year to date cooling degree days 36 13  
Since 1 June cooling degree days 36 13  
Growing Degree Days 23 (Base 50)    
Moisture  
Dew Point 40 °F    
Average Humidity 39    
Maximum Humidity 66    
Minimum Humidity 12    
Precipitation  
Precipitation 0.00 in 0.01 in 0.43 in (1958)
Month to date precipitation 0.00 0.02  
Year to date precipitation 5.41 8.46  
Sea Level Pressure  
Sea Level Pressure 29.84 in    
Wind  
Wind Speed 6 mph (West)    
Max Wind Speed 26 mph    
Max Gust Speed 34 mph    
Visibility 10 miles    
Events      
T = Trace of Precipitation, MM = Missing Value Source: NWS Daily Summary

Daily Weather History Graph

Daily Weather History Graph

Search for Another Location

Airport or City:

Trip Planner

Search our weather history database for the weather conditions in past years. The results will help you decide how hot, cold, wet, or windy it might be!

Date:

Astronomy

Jul. 02, 2014 Rise Set
Actual Time 5:32 AM PDT 8:39 PM PDT
Civil Twilight 4:59 AM PDT 9:13 PM PDT
Nautical Twilight 4:15 AM PDT 9:56 PM PDT
Astronomical Twilight 3:24 AM PDT 10:47 PM PDT
Moon 10:44 AM PDT (7/2) 11:30 PM PDT (7/2)
Length of Visible Light 16h 14m
Length of Day
15h 06m
Waxing Crescent, 25% of the Moon is Illuminated
Jul 2
Waxing Crescent
Jul 5
First Quarter
Jul 12
Full
Jul 18
Last Quarter
Jul 26
New

Hourly Weather History & Observations

Time (PDT) Temp. Dew Point Humidity Pressure Visibility Wind Dir Wind Speed Gust Speed Precip Events Conditions
12:55 AM 68.0 °F 39.9 °F 36% 29.82 in 10.0 mi South 3.5 mph - N/A   Clear
1:55 AM 64.0 °F 44.1 °F 48% 29.82 in 10.0 mi SE 4.6 mph - N/A   Clear
2:55 AM 60.1 °F 42.1 °F 51% 29.83 in 10.0 mi Calm Calm - N/A   Clear
3:55 AM 54.0 °F 41.0 °F 62% 29.84 in 10.0 mi Calm Calm - N/A   Clear
4:55 AM 55.0 °F 43.0 °F 64% 29.85 in 10.0 mi Calm Calm - N/A   Clear
5:55 AM 53.1 °F 42.1 °F 66% 29.87 in 10.0 mi Calm Calm - N/A   Clear
6:55 AM 62.1 °F 44.1 °F 52% 29.86 in 10.0 mi Calm Calm - N/A   Clear
7:55 AM 68.0 °F 43.0 °F 40% 29.86 in 10.0 mi WSW 3.5 mph - N/A   Clear
8:55 AM 77.0 °F 42.1 °F 29% 29.85 in 10.0 mi Calm Calm - N/A   Clear
9:55 AM 81.0 °F 41.0 °F 24% 29.83 in 10.0 mi East 3.5 mph - N/A   Clear
10:55 AM 84.9 °F 39.9 °F 20% 29.83 in 10.0 mi WNW 5.8 mph - N/A   Clear
11:55 AM 86.0 °F 39.0 °F 19% 29.83 in 10.0 mi Variable 3.5 mph - N/A   Clear
12:55 PM 89.1 °F 37.0 °F 16% 29.82 in 10.0 mi SW 4.6 mph - N/A   Clear
2:55 PM 91.0 °F 34.0 °F 13% 29.82 in 10.0 mi West 13.8 mph 20.7 mph N/A   Clear
3:55 PM 93.9 °F 33.1 °F 12% 29.81 in 10.0 mi WNW 16.1 mph 20.7 mph N/A   Clear
4:55 PM 93.0 °F 36.0 °F 13% 29.80 in 10.0 mi West 15.0 mph 23.0 mph N/A   Clear
5:55 PM 93.0 °F 34.0 °F 12% 29.81 in 10.0 mi West 16.1 mph 21.9 mph N/A   Clear
6:55 PM 90.0 °F 32.0 °F 13% 29.80 in 10.0 mi West 13.8 mph - N/A   Clear
7:28 PM 84.9 °F 46.0 °F 26% 29.98 in 10.0 mi NW 24.2 mph 34.5 mph N/A   Clear
7:55 PM 82.0 °F 42.1 °F 24% 29.84 in 10.0 mi NNW 17.3 mph 28.8 mph N/A   Clear
8:55 PM 78.1 °F 37.9 °F 24% 29.84 in 10.0 mi NNW 10.4 mph - N/A   Clear
9:55 PM 73.0 °F 37.9 °F 28% 29.88 in 10.0 mi SW 5.8 mph - N/A   Clear
10:55 PM 66.0 °F 37.9 °F 36% 29.88 in 10.0 mi Calm Calm - N/A   Clear
11:55 PM 63.0 °F 39.0 °F 41% 29.90 in 10.0 mi West 3.5 mph - N/A   Clear